Time,TemperatureF,DewpointF,PressureIn,WindDirection,WindDirectionDegrees,WindSpeedMPH,WindSpeedGustMPH,Humidity,HourlyPrecipIn,Conditions,Clouds,dailyrainin,SoftwareType,DateUTC
2013-01-24 00:10:00,48.2,47.0,30.06,WSW,257,0.0,-999.0,96,-99.99,,,0.00,weatherlink.com 1.10,2013-01-24 08:10:00,
2013-01-24 00:25:00,48.0,47.0,30.06,WSW,257,0.0,-999.0,96,-99.99,,,0.01,weatherlink.com 1.10,2013-01-24 08:25:00,
2013-01-24 00:40:00,48.0,47.0,30.06,WSW,257,0.0,-999.0,96,-99.99,,,0.01,weatherlink.com 1.10,2013-01-24 08:40:00,
2013-01-24 00:55:00,48.0,47.0,30.06,WSW,257,0.0,-999.0,96,-99.99,,,0.01,weatherlink.com 1.10,2013-01-24 08:55:00,
2013-01-24 01:10:00,48.2,47.0,30.06,WSW,257,0.0,-999.0,96,-99.99,,,0.01,weatherlink.com 1.10,2013-01-24 09:10:00,
2013-01-24 01:25:00,48.0,47.0,30.06,WSW,257,0.0,-999.0,96,-99.99,,,0.01,weatherlink.com 1.10,2013-01-24 09:25:00,
2013-01-24 01:40:00,48.0,47.0,30.05,WSW,257,0.0,-999.0,96,-99.99,,,0.01,weatherlink.com 1.10,2013-01-24 09:40:00,
2013-01-24 01:55:00,48.0,47.0,30.06,WSW,257,0.0,-999.0,96,-99.99,,,0.01,weatherlink.com 1.10,2013-01-24 09:55:00,
2013-01-24 02:10:00,48.3,47.0,30.06,WSW,257,0.0,-999.0,96,-99.99,,,0.01,weatherlink.com 1.10,2013-01-24 10:10:00,
2013-01-24 02:25:00,48.5,48.0,30.06,WSW,257,0.0,-999.0,96,-99.99,,,0.01,weatherlink.com 1.10,2013-01-24 10:25:00,
2013-01-24 02:40:00,48.5,48.0,30.06,WSW,257,0.0,-999.0,96,-99.99,,,0.01,weatherlink.com 1.10,2013-01-24 10:40:00,
2013-01-24 02:55:00,48.5,48.0,30.06,WSW,257,0.0,-999.0,96,-99.99,,,0.01,weatherlink.com 1.10,2013-01-24 10:55:00,
2013-01-24 03:10:00,48.5,48.0,30.06,WSW,257,0.0,-999.0,96,-99.99,,,0.01,weatherlink.com 1.10,2013-01-24 11:10:00,
2013-01-24 03:25:00,48.5,48.0,30.05,WSW,257,0.0,-999.0,96,-99.99,,,0.01,weatherlink.com 1.10,2013-01-24 11:25:00,
2013-01-24 03:40:00,48.6,48.0,30.05,WSW,257,0.0,-999.0,96,-99.99,,,0.01,weatherlink.com 1.10,2013-01-24 11:40:00,
2013-01-24 03:55:00,48.6,48.0,30.05,WSW,257,0.0,-999.0,96,-99.99,,,0.01,weatherlink.com 1.10,2013-01-24 11:55:00,
2013-01-24 04:10:00,48.6,48.0,30.06,WSW,257,0.0,-999.0,97,-99.99,,,0.01,weatherlink.com 1.10,2013-01-24 12:10:00,
2013-01-24 04:25:00,48.5,48.0,30.06,WSW,257,0.0,-999.0,96,-99.99,,,0.01,weatherlink.com 1.10,2013-01-24 12:25:00,
2013-01-24 04:40:00,48.6,48.0,30.06,WSW,257,0.0,-999.0,97,-99.99,,,0.01,weatherlink.com 1.10,2013-01-24 12:40:00,
2013-01-24 04:55:00,48.8,48.0,30.06,WSW,257,0.0,-999.0,97,-99.99,,,0.01,weatherlink.com 1.10,2013-01-24 12:55:00,
2013-01-24 05:10:00,48.8,48.0,30.06,WSW,257,0.0,-999.0,97,-99.99,,,0.01,weatherlink.com 1.10,2013-01-24 13:10:00,
2013-01-24 05:25:00,48.9,48.0,30.06,WSW,257,0.0,-999.0,97,-99.99,,,0.01,weatherlink.com 1.10,2013-01-24 13:25:00,
2013-01-24 05:40:00,48.9,48.0,30.06,WSW,257,0.0,-999.0,97,-99.99,,,0.01,weatherlink.com 1.10,2013-01-24 13:40:00,
2013-01-24 05:55:00,48.9,48.0,30.06,WSW,257,0.0,-999.0,97,-99.99,,,0.01,weatherlink.com 1.10,2013-01-24 13:55:00,
2013-01-24 06:10:00,48.9,48.0,30.06,WSW,257,0.0,-999.0,97,-99.99,,,0.01,weatherlink.com 1.10,2013-01-24 14:10:00,
2013-01-24 06:25:00,48.9,48.0,30.07,WSW,257,0.0,-999.0,97,-99.99,,,0.01,weatherlink.com 1.10,2013-01-24 14:25:00,
2013-01-24 06:40:00,48.9,48.0,30.07,WSW,257,0.0,-999.0,97,-99.99,,,0.01,weatherlink.com 1.10,2013-01-24 14:40:00,
2013-01-24 06:55:00,48.9,48.0,30.07,WSW,257,0.0,-999.0,97,-99.99,,,0.01,weatherlink.com 1.10,2013-01-24 14:55:00,
2013-01-24 07:11:00,48.8,48.0,30.07,WSW,257,0.0,-999.0,97,-99.99,,,0.01,weatherlink.com 1.10,2013-01-24 15:11:00,
2013-01-24 07:26:00,48.9,48.0,30.08,WSW,257,0.0,-999.0,97,-99.99,,,0.01,weatherlink.com 1.10,2013-01-24 15:26:00,
2013-01-24 07:41:00,48.8,48.0,30.08,WSW,257,0.0,-999.0,97,-99.99,,,0.01,weatherlink.com 1.10,2013-01-24 15:41:00,
2013-01-24 07:56:00,48.6,48.0,30.08,WSW,257,0.0,-999.0,97,-99.99,,,0.01,weatherlink.com 1.10,2013-01-24 15:56:00,
2013-01-24 08:11:00,48.9,48.0,30.08,WSW,257,0.0,-999.0,97,-99.99,,,0.01,weatherlink.com 1.10,2013-01-24 16:11:00,
2013-01-24 08:26:00,49.2,48.0,30.09,WSW,257,0.0,-999.0,97,-99.99,,,0.01,weatherlink.com 1.10,2013-01-24 16:26:00,
2013-01-24 08:41:00,49.6,49.0,30.09,WSW,257,0.0,-999.0,97,-99.99,,,0.01,weatherlink.com 1.10,2013-01-24 16:41:00,
2013-01-24 08:56:00,50.2,49.0,30.09,WSW,257,0.0,-999.0,97,-99.99,,,0.01,weatherlink.com 1.10,2013-01-24 16:56:00,
2013-01-24 09:11:00,50.7,50.0,30.10,WSW,257,0.0,-999.0,97,-99.99,,,0.01,weatherlink.com 1.10,2013-01-24 17:11:00,
2013-01-24 09:26:00,51.0,50.0,30.10,WSW,257,2.0,-999.0,97,-99.99,,,0.01,weatherlink.com 1.10,2013-01-24 17:26:00,
2013-01-24 09:41:00,51.0,50.0,30.11,SSE,161,2.0,-999.0,97,-99.99,,,0.01,weatherlink.com 1.10,2013-01-24 17:41:00,
2013-01-24 09:56:00,50.7,50.0,30.12,SE,134,1.0,-999.0,97,-99.99,,,0.01,weatherlink.com 1.10,2013-01-24 17:56:00,
2013-01-24 10:11:00,50.1,49.0,30.13,SE,130,2.0,-999.0,97,-99.99,,,0.01,weatherlink.com 1.10,2013-01-24 18:11:00,
2013-01-24 10:26:00,50.1,49.0,30.14,SE,127,0.0,-999.0,97,-99.99,,,0.01,weatherlink.com 1.10,2013-01-24 18:26:00,
2013-01-24 10:41:00,50.2,49.0,30.14,SE,127,2.0,-999.0,97,-99.99,,,0.01,weatherlink.com 1.10,2013-01-24 18:41:00,
2013-01-24 10:56:00,50.4,50.0,30.14,SE,127,0.0,-999.0,97,-99.99,,,0.01,weatherlink.com 1.10,2013-01-24 18:56:00,
2013-01-24 11:11:00,50.5,50.0,30.14,SE,127,0.0,-999.0,97,-99.99,,,0.01,weatherlink.com 1.10,2013-01-24 19:11:00,
2013-01-24 11:26:00,50.7,50.0,30.14,SE,127,0.0,-999.0,97,-99.99,,,0.01,weatherlink.com 1.10,2013-01-24 19:26:00,
2013-01-24 11:41:00,51.0,50.0,30.14,SE,127,0.0,-999.0,97,-99.99,,,0.01,weatherlink.com 1.10,2013-01-24 19:41:00,
2013-01-24 11:56:00,51.4,51.0,30.13,SE,127,0.0,-999.0,97,-99.99,,,0.01,weatherlink.com 1.10,2013-01-24 19:56:00,
2013-01-24 12:11:00,51.7,51.0,30.12,SE,127,0.0,-999.0,97,-99.99,,,0.01,weatherlink.com 1.10,2013-01-24 20:11:00,
2013-01-24 12:26:00,52.2,51.0,30.12,SE,127,0.0,-999.0,97,-99.99,,,0.01,weatherlink.com 1.10,2013-01-24 20:26:00,
2013-01-24 12:41:00,52.9,52.0,30.12,SE,127,0.0,-999.0,98,-99.99,,,0.02,weatherlink.com 1.10,2013-01-24 20:41:00,
2013-01-24 12:56:00,53.3,53.0,30.11,SE,127,0.0,-999.0,98,-99.99,,,0.02,weatherlink.com 1.10,2013-01-24 20:56:00,
2013-01-24 13:11:00,54.2,54.0,30.10,SE,127,0.0,-999.0,98,-99.99,,,0.02,weatherlink.com 1.10,2013-01-24 21:11:00,
2013-01-24 13:26:00,55.4,55.0,30.10,SE,127,0.0,-999.0,98,-99.99,,,0.02,weatherlink.com 1.10,2013-01-24 21:26:00,
2013-01-24 13:41:00,56.3,56.0,30.10,SE,127,0.0,-999.0,98,-99.99,,,0.02,weatherlink.com 1.10,2013-01-24 21:41:00,
2013-01-24 13:56:00,56.2,55.0,30.09,SE,127,0.0,-999.0,96,-99.99,,,0.02,weatherlink.com 1.10,2013-01-24 21:56:00,
2013-01-24 14:11:00,57.6,56.0,30.09,SE,127,0.0,-999.0,94,-99.99,,,0.02,weatherlink.com 1.10,2013-01-24 22:11:00,
2013-01-24 14:26:00,58.6,55.0,30.09,SE,132,0.0,-999.0,86,-99.99,,,0.02,weatherlink.com 1.10,2013-01-24 22:26:00,
2013-01-24 14:42:00,59.5,53.0,30.09,SE,132,0.0,-999.0,79,-99.99,,,0.02,weatherlink.com 1.10,2013-01-24 22:42:00,
2013-01-24 14:57:00,60.5,52.0,30.09,SE,134,0.0,-999.0,74,-99.99,,,0.02,weatherlink.com 1.10,2013-01-24 22:57:00,
2013-01-24 15:12:00,61.6,52.0,30.09,WSW,254,2.0,-999.0,72,-99.99,,,0.02,weatherlink.com 1.10,2013-01-24 23:12:00,
2013-01-24 15:27:00,61.8,52.0,30.09,SW,217,3.0,-999.0,71,-99.99,,,0.02,weatherlink.com 1.10,2013-01-24 23:27:00,
2013-01-24 15:42:00,61.5,52.0,30.09,SW,222,0.0,-999.0,72,-99.99,,,0.02,weatherlink.com 1.10,2013-01-24 23:42:00,
2013-01-24 15:57:00,61.3,51.0,30.09,SSE,155,1.0,-999.0,69,-99.99,,,0.02,weatherlink.com 1.10,2013-01-24 23:57:00,
2013-01-24 16:12:00,61.2,51.0,30.09,SE,142,0.0,-999.0,70,-99.99,,,0.02,weatherlink.com 1.10,2013-01-25 00:12:00,
2013-01-24 16:27:00,61.0,51.0,30.10,ESE,117,0.0,-999.0,70,-99.99,,,0.02,weatherlink.com 1.10,2013-01-25 00:27:00,
2013-01-24 16:42:00,60.5,51.0,30.10,ESE,113,2.0,-999.0,72,-99.99,,,0.02,weatherlink.com 1.10,2013-01-25 00:42:00,
2013-01-24 16:57:00,60.1,51.0,30.10,ESE,113,0.0,-999.0,72,-99.99,,,0.02,weatherlink.com 1.10,2013-01-25 00:57:00,
2013-01-24 17:12:00,59.8,53.0,30.11,ESE,113,0.0,-999.0,77,-99.99,,,0.02,weatherlink.com 1.10,2013-01-25 01:12:00,
2013-01-24 17:27:00,58.7,52.0,30.11,SE,130,0.0,-999.0,79,-99.99,,,0.02,weatherlink.com 1.10,2013-01-25 01:27:00,
2013-01-24 17:42:00,58.1,52.0,30.12,SE,130,0.0,-999.0,80,-99.99,,,0.02,weatherlink.com 1.10,2013-01-25 01:42:00,
2013-01-24 17:57:00,57.8,52.0,30.12,SE,130,0.0,-999.0,81,-99.99,,,0.02,weatherlink.com 1.10,2013-01-25 01:57:00,
2013-01-24 18:12:00,56.7,52.0,30.12,SE,130,0.0,-999.0,84,-99.99,,,0.02,weatherlink.com 1.10,2013-01-25 02:12:00,
2013-01-24 18:27:00,56.0,52.0,30.13,SE,130,0.0,-999.0,86,-99.99,,,0.02,weatherlink.com 1.10,2013-01-25 02:27:00,
2013-01-24 18:42:00,55.6,52.0,30.13,SE,130,0.0,-999.0,87,-99.99,,,0.02,weatherlink.com 1.10,2013-01-25 02:42:00,
2013-01-24 18:57:00,55.3,52.0,30.14,SE,130,0.0,-999.0,88,-99.99,,,0.02,weatherlink.com 1.10,2013-01-25 02:57:00,
2013-01-24 19:12:00,54.8,52.0,30.14,SE,130,0.0,-999.0,89,-99.99,,,0.02,weatherlink.com 1.10,2013-01-25 03:12:00,
2013-01-24 19:27:00,54.5,52.0,30.14,SE,130,0.0,-999.0,90,-99.99,,,0.02,weatherlink.com 1.10,2013-01-25 03:27:00,
2013-01-24 19:42:00,54.2,51.0,30.14,SE,130,0.0,-999.0,90,-99.99,,,0.02,weatherlink.com 1.10,2013-01-25 03:42:00,
2013-01-24 19:57:00,53.8,51.0,30.14,SE,131,0.0,-999.0,90,-99.99,,,0.02,weatherlink.com 1.10,2013-01-25 03:57:00,
2013-01-24 20:12:00,53.5,51.0,30.14,SE,131,0.0,-999.0,91,-99.99,,,0.02,weatherlink.com 1.10,2013-01-25 04:12:00,
2013-01-24 20:27:00,53.2,51.0,30.15,SE,131,0.0,-999.0,91,-99.99,,,0.02,weatherlink.com 1.10,2013-01-25 04:27:00,
2013-01-24 20:42:00,53.2,51.0,30.15,SE,131,0.0,-999.0,91,-99.99,,,0.02,weatherlink.com 1.10,2013-01-25 04:42:00,
2013-01-24 20:57:00,53.1,51.0,30.15,SE,131,0.0,-999.0,92,-99.99,,,0.02,weatherlink.com 1.10,2013-01-25 04:57:00,
2013-01-24 21:12:00,52.9,51.0,30.15,SE,131,0.0,-999.0,92,-99.99,,,0.02,weatherlink.com 1.10,2013-01-25 05:12:00,
2013-01-24 21:27:00,52.9,51.0,30.15,SE,131,0.0,-999.0,92,-99.99,,,0.02,weatherlink.com 1.10,2013-01-25 05:27:00,
2013-01-24 21:42:00,52.8,51.0,30.15,SE,131,0.0,-999.0,92,-99.99,,,0.02,weatherlink.com 1.10,2013-01-25 05:42:00,
2013-01-24 21:57:00,52.8,51.0,30.15,SE,131,0.0,-999.0,93,-99.99,,,0.02,weatherlink.com 1.10,2013-01-25 05:57:00,
2013-01-24 22:27:00,52.3,50.0,30.16,SE,131,0.0,-999.0,93,-99.99,,,0.02,weatherlink.com 1.10,2013-01-25 06:27:00,
2013-01-24 22:42:00,52.2,50.0,30.16,SE,131,0.0,-999.0,93,-99.99,,,0.02,weatherlink.com 1.10,2013-01-25 06:42:00,
2013-01-24 22:57:00,52.0,50.0,30.16,SE,131,0.0,-999.0,93,-99.99,,,0.02,weatherlink.com 1.10,2013-01-25 06:57:00,
2013-01-24 23:12:00,51.9,50.0,30.16,SE,131,0.0,-999.0,93,-99.99,,,0.02,weatherlink.com 1.10,2013-01-25 07:12:00,
2013-01-24 23:27:00,51.6,50.0,30.16,SE,131,0.0,-999.0,93,-99.99,,,0.02,weatherlink.com 1.10,2013-01-25 07:27:00,
2013-01-24 23:42:00,51.4,50.0,30.16,SE,131,0.0,-999.0,93,-99.99,,,0.02,weatherlink.com 1.10,2013-01-25 07:42:00,
2013-01-24 23:57:00,51.3,49.0,30.17,SE,131,0.0,-999.0,93,-99.99,,,0.02,weatherlink.com 1.10,2013-01-25 07:57:00,